• en France
  • Liste des pays
  • À 7 jours
  • Température de l'eau
  • Carte satellitaire
  • Carte météo
  • Widgets météo
  • user-avatar
    Se connecter

    Météo par heure à Nochevo

    Ce jour, 20 Septembre, Jeudi

    Heure Température Précipitation Vent Pression Humidité
    00:00 +16°C° 0 mm 2 m/s 751 mmHg 95%
    01:00 +15°C° 0 mm 2 m/s 751 mmHg 96%
    02:00 +14°C° 0 mm 2 m/s 751 mmHg 97%
    03:00 +14°C° 0 mm 2 m/s 751 mmHg 97%
    04:00 +13°C° 0 mm 2 m/s 752 mmHg 97%
    05:00 +13°C° 0 mm 2 m/s 752 mmHg 98%
    06:00 +14°C° 0 mm 2 m/s 752 mmHg 95%
    07:00 +14°C° 0 mm 2 m/s 752 mmHg 92%
    08:00 +14°C° 0 mm 3 m/s 752 mmHg 89%
    09:00 +17°C° 0 mm 3 m/s 752 mmHg 81%
    10:00 +19°C° 0 mm 3 m/s 752 mmHg 74%
    11:00 +21°C° 0 mm 3 m/s 753 mmHg 66%
    12:00 +22°C° 0 mm 3 m/s 752 mmHg 63%
    13:00 +24°C° 0 mm 3 m/s 752 mmHg 59%
    14:00 +25°C° 0 mm 3 m/s 752 mmHg 56%
    15:00 +24°C° 0 mm 3 m/s 752 mmHg 61%
    16:00 +22°C° 0 mm 3 m/s 752 mmHg 65%
    17:00 +23°C° 0 mm 2 m/s 752 mmHg 70%
    18:00 +20°C° 0 mm 2 m/s 752 mmHg 75%
    19:00 +19°C° 0 mm 2 m/s 752 mmHg 80%
    20:00 +18°C° 0 mm 2 m/s 752 mmHg 86%
    21:00 +17°C° 0 mm 2 m/s 752 mmHg 88%
    22:00 +17°C° 0 mm 2 m/s 752 mmHg 90%
    23:00 +17°C° 0 mm 2 m/s 752 mmHg 92%

    Demain, 21 Septembre, Vendredi

    Heure Température Précipitation Vent Pression Humidité
    00:00 +17°C° 0 mm 2 m/s 752 mmHg 93%
    01:00 +16°C° 0 mm 2 m/s 752 mmHg 95%
    02:00 +16°C° 0 mm 2 m/s 752 mmHg 96%
    03:00 +16°C° 0 mm 2 m/s 752 mmHg 96%
    04:00 +16°C° 0 mm 2 m/s 752 mmHg 96%
    05:00 +16°C° 0 mm 2 m/s 752 mmHg 96%
    06:00 +17°C° 0 mm 2 m/s 752 mmHg 92%
    07:00 +18°C° 0 mm 3 m/s 752 mmHg 89%
    08:00 +19°C° 0 mm 3 m/s 752 mmHg 85%
    09:00 +21°C° 0 mm 3 m/s 752 mmHg 78%
    10:00 +22°C° 0 mm 3 m/s 752 mmHg 72%
    11:00 +25°C° 0 mm 4 m/s 752 mmHg 65%
    12:00 +26°C° 0 mm 4 m/s 752 mmHg 62%
    13:00 +27°C° 0 mm 4 m/s 751 mmHg 58%
    14:00 +27°C° 0 mm 5 m/s 751 mmHg 55%
    15:00 +27°C° 0 mm 4 m/s 750 mmHg 59%
    16:00 +26°C° 0 mm 4 m/s 750 mmHg 64%
    17:00 +25°C° 0 mm 3 m/s 750 mmHg 68%
    18:00 +23°C° 0 mm 4 m/s 749 mmHg 70%
    19:00 +21°C° 0 mm 4 m/s 749 mmHg 73%
    20:00 +20°C° 0 mm 4 m/s 749 mmHg 75%
    21:00 +20°C° 0 mm 4 m/s 748 mmHg 73%
    22:00 +20°C° 0 mm 5 m/s 748 mmHg 71%
    23:00 +19°C° 0 mm 5 m/s 747 mmHg 69%

    Après-demain, 22 Septembre, Samedi

    Heure Température Précipitation Vent Pression Humidité
    00:00 +19°C° 0 mm 5 m/s 747 mmHg 68%
    01:00 +19°C° 0 mm 5 m/s 746 mmHg 68%
    02:00 +19°C° 0 mm 6 m/s 745 mmHg 67%
    03:00 +19°C° 0 mm 5 m/s 745 mmHg 68%
    04:00 +19°C° 0 mm 5 m/s 745 mmHg 69%
    05:00 +17°C° 0 mm 5 m/s 745 mmHg 69%
    06:00 +16°C° 0.7 mm 5 m/s 745 mmHg 75%
    07:00 +14°C° 0.7 mm 4 m/s 745 mmHg 80%
    08:00 +13°C° 0.7 mm 4 m/s 746 mmHg 86%
    09:00 +13°C° 0.5 mm 4 m/s 746 mmHg 84%
    10:00 +13°C° 0.5 mm 4 m/s 746 mmHg 82%
    11:00 +13°C° 0.5 mm 4 m/s 747 mmHg 80%
    12:00 +14°C° 0 mm 4 m/s 747 mmHg 75%
    13:00 +14°C° 0 mm 5 m/s 747 mmHg 71%
    14:00 +15°C° 0 mm 5 m/s 747 mmHg 67%
    15:00 +14°C° 0.1 mm 4 m/s 747 mmHg 67%
    16:00 +14°C° 0.1 mm 4 m/s 747 mmHg 67%
    17:00 +13°C° 0.1 mm 4 m/s 747 mmHg 67%
    18:00 +13°C° 0 mm 4 m/s 747 mmHg 71%
    19:00 +12°C° 0 mm 3 m/s 747 mmHg 75%
    20:00 +11°C° 0 mm 3 m/s 747 mmHg 79%
    21:00 +10°C° 0 mm 3 m/s 747 mmHg 81%
    22:00 +9°C° 0 mm 3 m/s 747 mmHg 83%
    23:00 +9°C° 0 mm 3 m/s 747 mmHg 85%

    23 Septembre, Dimanche

    Heure Température Précipitation Vent Pression Humidité
    00:00 +8°C° 0 mm 3 m/s 747 mmHg 87%
    01:00 +8°C° 0 mm 3 m/s 747 mmHg 88%
    02:00 +8°C° 0 mm 3 m/s 747 mmHg 90%
    03:00 +8°C° 0 mm 3 m/s 746 mmHg 90%
    04:00 +8°C° 0 mm 3 m/s 746 mmHg 90%
    05:00 +7°C° 0 mm 4 m/s 746 mmHg 90%
    06:00 +7°C° 0 mm 4 m/s 746 mmHg 86%
    07:00 +8°C° 0 mm 4 m/s 746 mmHg 83%
    08:00 +9°C° 0 mm 5 m/s 745 mmHg 80%
    09:00 +10°C° 0.1 mm 5 m/s 745 mmHg 76%
    10:00 +12°C° 0.1 mm 5 m/s 745 mmHg 71%
    11:00 +13°C° 0.1 mm 6 m/s 745 mmHg 67%
    12:00 +13°C° 0.3 mm 6 m/s 745 mmHg 67%
    13:00 +13°C° 0.3 mm 6 m/s 745 mmHg 68%
    14:00 +13°C° 0.3 mm 6 m/s 745 mmHg 68%
    15:00 +12°C° 0.3 mm 5 m/s 745 mmHg 72%
    16:00 +12°C° 0.3 mm 5 m/s 745 mmHg 76%
    17:00 +11°C° 0.3 mm 4 m/s 745 mmHg 79%
    18:00 +10°C° 0 mm 4 m/s 745 mmHg 83%
    19:00 +10°C° 0 mm 4 m/s 745 mmHg 86%
    20:00 +9°C° 0 mm 3 m/s 745 mmHg 90%
    21:00 +8°C° 0 mm 3 m/s 745 mmHg 91%
    22:00 +8°C° 0 mm 3 m/s 745 mmHg 93%
    23:00 +8°C° 0 mm 3 m/s 746 mmHg 94%

    24 Septembre, Lundi

    Heure Température Précipitation Vent Pression Humidité
    00:00 +7°C° 0 mm 2 m/s 746 mmHg 95%
    01:00 +7°C° 0 mm 2 m/s 745 mmHg 96%
    02:00 +6°C° 0 mm 2 m/s 745 mmHg 97%
    03:00 +6°C° 0 mm 2 m/s 745 mmHg 97%
    04:00 +6°C° 0 mm 2 m/s 745 mmHg 97%
    05:00 +6°C° 0 mm 2 m/s 744 mmHg 97%
    06:00 +6°C° 0 mm 2 m/s 744 mmHg 94%
    07:00 +7°C° 0 mm 2 m/s 744 mmHg 91%
    08:00 +8°C° 0 mm 2 m/s 743 mmHg 88%
    09:00 +9°C° 0 mm 3 m/s 743 mmHg 82%
    10:00 +10°C° 0 mm 4 m/s 742 mmHg 76%
    11:00 +11°C° 0 mm 4 m/s 741 mmHg 70%
    12:00 +10°C° 1 mm 4 m/s 740 mmHg 76%
    13:00 +8°C° 1 mm 4 m/s 739 mmHg 81%
    14:00 +8°C° 1 mm 4 m/s 738 mmHg 87%
    15:00 +7°C° 2.4 mm 5 m/s 737 mmHg 89%
    16:00 +7°C° 2.4 mm 5 m/s 736 mmHg 91%
    17:00 +5°C° 2.4 mm 6 m/s 735 mmHg 93%
    18:00 +5°C° 1.6 mm 6 m/s 734 mmHg 93%
    19:00 +5°C° 1.6 mm 6 m/s 733 mmHg 93%
    20:00 +5°C° 1.6 mm 6 m/s 732 mmHg 94%
    21:00 +6°C° 1.7 mm 5 m/s 731 mmHg 94%
    22:00 +6°C° 1.7 mm 5 m/s 730 mmHg 95%
    23:00 +6°C° 1.7 mm 4 m/s 729 mmHg 95%

    25 Septembre, Mardi

    Heure Température Précipitation Vent Pression Humidité
    00:00 +6°C° 2.3 mm 5 m/s 729 mmHg 95%
    01:00 +5°C° 2.3 mm 6 m/s 729 mmHg 95%
    02:00 +5°C° 2.3 mm 6 m/s 729 mmHg 94%
    03:00 +5°C° 1.5 mm 6 m/s 729 mmHg 94%
    04:00 +5°C° 1.5 mm 7 m/s 729 mmHg 93%
    05:00 +5°C° 1.5 mm 7 m/s 730 mmHg 92%
    06:00 +5°C° 1.1 mm 7 m/s 730 mmHg 92%
    07:00 +5°C° 1.1 mm 8 m/s 731 mmHg 91%
    08:00 +5°C° 1.1 mm 8 m/s 732 mmHg 90%
    09:00 +5°C° 0.7 mm 8 m/s 733 mmHg 90%
    10:00 +5°C° 0.7 mm 8 m/s 734 mmHg 89%
    11:00 +5°C° 0.7 mm 9 m/s 735 mmHg 88%
    12:00 +5°C° 0.7 mm 9 m/s 736 mmHg 88%
    13:00 +5°C° 0.7 mm 9 m/s 737 mmHg 87%
    14:00 +5°C° 0.7 mm 9 m/s 738 mmHg 86%
    15:00 +5°C° 0.3 mm 9 m/s 739 mmHg 85%
    16:00 +4°C° 0.3 mm 8 m/s 740 mmHg 84%
    17:00 +4°C° 0.3 mm 8 m/s 741 mmHg 83%
    18:00 +4°C° 0.1 mm 7 m/s 741 mmHg 81%
    19:00 +3°C° 0.1 mm 7 m/s 742 mmHg 79%
    20:00 +3°C° 0.1 mm 7 m/s 743 mmHg 77%
    21:00 +3°C° 0 mm 6 m/s 743 mmHg 76%
    22:00 +3°C° 0 mm 6 m/s 744 mmHg 74%
    23:00 +2°C° 0 mm 6 m/s 745 mmHg 73%
    Voir plus